Probability
0 0 0 0 0 0 0 0 0 0 0 0 0 0 0 0 0 0 0 0 0 0 1 2 3 4 6 9 9 8 6 5 4 3 4 4 4 4 4 3 3 3 3 3
0 0 0 0 0 0 0 0 0 0 0 0 0 0 0 0 0 0 0 0 0 0 1 2 3 3 5 8 9 9 7 6 4 4 4 5 6 5 3 2 2 2 3 3
0 0 0 0 0 0 0 1 0 0 0 0 0 0 0 0 0 0 0 0 0 0 0 1 3 3 4 5 7 8 8 7 6 5 5 7 7 6 3 1 0 1 2 3
0 0 0 0 0 0 0 0 0 0 0 0 0 0 0 0 0 0 0 0 0 0 0 1 2 3 3 3 4 5 7 7 6 6 6 7 7 6 3 1 1 1 2 3
0 0 0 0 0 0 0 0 0 0 0 0 0 0 0 0 0 0 0 0 0 0 0 0 1 2 3 3 3 4 5 6 6 6 7 7 7 6 3 2 2 2 3 3
0 0 0 0 0 0 0 0 0 0 0 0 0 0 0 0 0 0 0 0 0 0 0 0 1 2 2 3 4 5 5 5 5 5 6 7 6 5 3 3 3 3 3 3
0 0 0 0 0 0 0 1 0 0 0 0 0 0 0 0 0 0 0 0 0 0 0 0 0 1 2 4 6 6 6 5 4 4 5 5 4 2 2 3 3 2 2 2
0 0 0 0 0 0 0 0 0 0 0 0 0 0 0 0 0 0 0 0 0 0 0 0 0 1 2 4 6 6 6 6 4 3 4 4 4 2 2 3 3 1 0 1
0 0 0 0 0 0 0 0 0 0 0 0 0 0 0 0 0 0 0 0 0 0 0 0 0 0 1 2 4 5 6 5 4 3 4 5 5 4 3 3 4 2 1 1
0 0 0 0 0 0 0 0 0 0 0 0 0 0 0 0 0 0 0 0 0 0 1 1 1 0 0 1 2 3 5 4 4 3 3 4 5 6 4 4 4 4 4 4
0 0 0 0 0 0 0 0 0 0 0 0 0 0 0 0 0 0 0 0 0 0 1 1 1 0 0 1 1 3 5 5 4 4 4 4 4 5 5 4 4 4 5 5
0 0 0 0 0 0 0 0 0 0 0 0 0 0 0 0 0 0 0 0 0 0 0 0 0 0 0 0 1 3 4 5 6 5 5 4 3 4 6 5 4 3 3 3
0 0 0 0 0 0 0 0 0 0 0 0 0 0 0 0 0 0 0 0 0 0 0 0 0 0 0 0 1 2 3 4 5 6 4 3 3 4 5 6 5 3 2 2
0 0 0 0 0 0 0 0 0 0 0 0 0 0 0 0 0 0 0 0 0 0 0 0 0 1 1 0 0 1 2 3 4 5 4 3 3 3 4 5 6 5 4 3
0 0 0 0 0 0 0 0 0 0 0 0 0 0 0 0 0 0 0 0 0 0 0 0 0 1 1 0 1 1 1 2 3 3 3 3 3 3 3 4 5 5 5 5
0 0 0 0 0 0 0 0 0 0 0 0 0 0 0 0 0 0 0 0 0 0 0 0 0 0 0 0 1 2 2 2 2 2 2 2 3 3 3 3 4 4 4 4
0 0 0 0 0 0 0 0 0 0 0 0 0 0 0 0 0 0 0 0 0 0 0 0 0 0 0 0 1 2 2 1 1 1 0 1 1 2 3 3 3 3 3 3
0 0 0 0 0 0 0 0 0 0 0 0 0 0 0 0 0 0 0 0 0 0 0 0 0 0 0 0 1 2 2 1 0 0 0 0 0 1 2 2 3 3 3 2
0 0 0 0 0 0 0 0 0 0 0 0 0 0 0 0 0 0 0 0 0 0 0 0 0 0 0 0 1 2 2 1 0 0 0 0 0 0 1 1 1 2 1 1
0 0 0 0 0 0 0 0 0 0 0 0 0 0 0 0 0 0 0 0 0 0 0 0 0 0 0 1 1 2 1 0 0 0 0 0 0 0 0 0 0 0 0 0
0 0 0 0 0 0 0 0 0 0 0 0 0 0 0 0 0 0 0 0 0 0 0 0 0 0 0 1 2 2 1 0 0 0 0 0 0 0 0 0 0 0 0 0
0 0 0 0 0 0 0 0 0 0 0 0 0 0 0 0 0 0 0 0 0 0 0 0 0 0 0 1 2 2 1 0 0 0 0 0 0 0 0 0 0 0 0 0
0 0 0 0 0 0 0 0 0 0 0 0 0 0 0 0 0 0 0 0 0 0 0 0 0 0 0 1 1 1 0 0 0 0 0 0 0 0 0 0 0 0 0 0
0 0 0 0 0 0 0 0 0 0 0 0 0 0 0 0 0 0 0 0 0 0 0 0 0 0 0 0 0 0 0 0 0 0 0 0 0 0 0 0 0 0 0 0
0 0 0 0 0 0 0 0 0 0 0 0 0 0 0 0 0 0 0 0 0 0 0 0 0 0 0 0 0 0 0 0 0 0 0 0 0 0 0 0 0 0 0 0
0 0 0 0 0 0 0 0 0 0 0 0 0 0 0 0 0 0 0 0 0 0 0 0 0 0 0 0 0 0 0 0 0 0 0 0 0 0 0 0 0 0 0 0
Wind_Speed
3 5 5 4 4 4 4 5 4 2 0 3 3 3 1 0 1 2 1 1 1 1 1 2 2 1 2 2 1 1 2 2 2 2 2 1 1 1 1 1 1 1 1 1
6 5 2 2 3 4 5 6 3 1 1 3 3 3 1 1 2 1 1 0 0 1 2 2 2 2 2 1 1 1 1 2 2 2 1 1 1 1 1 1 1 1 1 1
5 1 2 4 5 5 5 6 4 3 2 4 4 3 3 2 2 2 1 0 1 1 1 2 2 2 1 2 1 0 1 2 2 3 2 2 2 1 1 1 1 0 0 0
3 2 3 5 5 6 4 2 4 5 6 3 4 4 2 3 3 3 2 1 1 1 1 2 2 2 1 2 1 1 1 2 2 2 2 2 1 1 1 0 0 1 0 0
3 2 3 4 3 5 2 0 3 5 6 6 5 6 2 3 3 3 2 1 1 1 1 1 2 2 2 2 2 1 1 2 2 2 2 2 1 1 0 0 1 1 1 0
2 1 3 2 1 3 3 4 4 5 6 7 4 6 3 2 1 2 3 2 1 1 1 2 2 2 2 2 2 2 2 2 2 1 2 2 1 1 1 0 0 0 0 1
5 4 3 2 4 4 5 6 5 6 5 3 1 5 2 3 2 1 2 2 2 2 1 2 2 2 2 2 2 2 2 2 1 1 1 2 1 1 1 1 1 1 1 1
5 5 3 1 4 4 5 7 6 5 4 2 4 5 2 4 2 1 2 2 2 2 2 2 2 2 2 2 1 1 2 1 1 1 1 1 1 1 1 1 1 2 1 1
3 2 3 0 2 4 5 5 5 7 6 6 4 3 3 4 3 2 2 2 2 2 1 2 2 2 2 2 1 1 1 1 1 0 0 0 0 0 1 2 2 2 2 2
4 4 2 1 3 1 3 2 4 6 6 7 5 6 3 4 3 2 2 1 1 1 1 2 2 2 2 2 1 1 0 0 1 1 0 0 1 1 1 2 2 2 2 2
4 5 3 4 5 3 3 4 5 5 6 6 5 1 3 1 1 2 2 1 1 1 1 1 1 1 2 1 1 1 0 0 1 1 1 1 1 1 2 2 2 2 2 2
3 5 5 3 1 2 4 4 6 6 5 6 7 2 5 2 1 1 2 2 1 1 1 1 1 1 1 1 1 0 0 1 1 1 1 1 1 2 2 2 2 2 2 2
3 5 5 5 6 5 4 4 6 7 7 7 8 3 5 1 1 1 1 2 1 2 1 1 1 0 1 1 1 1 1 1 1 1 1 1 1 2 2 2 2 2 2 2
4 6 7 7 4 2 5 6 7 9 8 9 10 9 5 4 3 3 3 2 2 3 2 2 1 1 0 0 1 1 1 1 1 1 2 2 2 2 2 2 2 2 2 2
5 6 6 7 6 6 8 9 9 12 12 12 10 10 9 7 6 4 3 3 3 3 3 2 2 1 1 1 1 1 1 1 1 1 2 2 2 2 2 1 1 2 2 2
4 5 6 7 6 6 9 10 11 12 12 12 12 11 7 5 4 3 4 4 4 3 3 3 3 2 1 1 1 1 1 1 2 2 2 2 2 2 1 1 1 1 2 2
4 5 6 7 5 8 10 8 9 8 8 9 10 7 4 4 4 4 4 4 4 3 3 3 3 3 2 2 2 2 2 2 2 2 3 3 3 2 2 1 1 2 2 2
6 6 4 6 6 9 1 1 3 6 7 7 7 6 5 5 3 3 3 4 4 3 3 3 3 2 2 2 1 1 1 2 2 2 3 3 3 3 2 2 2 2 2 1
6 6 5 5 7 8 4 2 3 6 5 4 6 6 3 2 3 3 2 2 3 3 3 3 2 2 2 2 2 2 2 2 2 3 3 3 3 3 3 3 2 2 2 2
4 6 6 6 7 7 1 2 1 5 5 1 3 4 3 3 5 2 0 2 2 2 2 2 2 2 2 2 2 2 2 2 3 3 3 3 3 3 3 3 2 2 1 1
5 6 7 9 8 6 2 1 3 6 2 2 2 4 5 6 6 4 2 3 2 2 1 1 2 2 1 2 2 2 2 3 3 3 3 3 3 3 3 3 2 2 1 2
5 5 6 6 8 5 3 3 4 4 4 4 4 5 5 5 4 3 3 3 2 1 1 2 2 1 1 2 3 3 2 2 3 3 3 3 3 2 2 2 2 2 2 2
6 5 3 5 4 2 2 3 4 5 6 5 5 5 5 5 5 4 3 3 2 2 2 2 2 2 1 2 3 3 2 3 3 3 3 3 2 2 2 2 2 2 2 2
4 4 6 6 7 6 5 6 6 6 7 6 5 4 4 5 5 4 3 3 3 3 3 2 2 2 2 2 3 4 3 3 4 4 3 3 2 2 2 2 2 2 2 2
5 5 6 8 7 7 6 6 6 5 5 5 5 4 4 5 5 5 4 4 3 3 3 3 3 3 3 3 3 3 3 4 4 4 3 3 2 2 2 2 2 2 2 2
6 7 7 7 6 6 6 5 6 6 6 5 4 4 4 5 5 5 4 3 3 3 3 4 4 4 4 3 3 3 3 4 4 4 3 2 2 2 2 2 2 1 2 2
Wind_Direction
182 212 214 219 244 276 267 264 270 285 268 250 265 282 303 208 229 231 215 208 208 192 93 87 97 108 139 131 125 122 156 163 161 166 164 150 138 132 117 102 79 105 113 108
193 209 236 232 210 229 243 253 259 228 155 258 275 284 294 215 217 242 267 241 185 135 101 96 104 103 81 92 105 117 144 160 165 168 161 154 139 144 93 107 129 145 132 124
225 109 171 206 205 225 241 255 267 261 239 221 262 239 199 161 171 177 217 297 91 75 113 119 115 91 81 53 23 89 130 146 151 150 145 145 137 140 134 125 89 83 34 129
219 203 205 222 230 248 249 259 253 239 245 235 253 268 199 178 174 180 179 166 97 107 110 111 112 110 89 60 31 32 123 139 145 156 167 168 159 165 161 170 133 132 105 17
191 200 222 234 248 252 284 76 229 242 255 256 234 258 194 176 208 193 172 144 103 93 87 103 107 111 85 77 65 55 88 109 128 151 155 188 173 148 111 138 129 108 129 147
223 220 254 261 244 233 171 182 185 215 241 247 244 256 236 192 216 109 104 112 114 93 86 91 91 95 95 86 83 74 82 99 105 144 163 182 180 157 139 146 74 39 183 177
196 186 180 226 213 181 215 239 237 222 220 238 143 252 254 80 63 70 87 90 103 102 92 82 91 88 92 94 98 97 87 93 132 168 185 196 202 204 206 218 226 255 234 228
221 192 158 215 256 247 234 250 265 277 276 265 201 247 110 96 86 97 99 91 97 99 91 90 95 99 86 92 104 115 102 104 106 168 203 227 200 225 238 246 244 247 256 258
251 205 127 310 281 259 230 235 285 282 279 273 239 224 163 147 139 121 109 102 96 97 94 96 90 88 86 76 84 143 130 100 79 37 229 227 237 220 257 247 243 247 257 264
280 255 182 155 188 80 297 247 229 250 269 266 252 245 226 173 178 163 151 129 108 107 96 100 97 80 77 73 73 90 152 76 52 37 20 265 282 264 273 265 254 243 242 251
260 256 204 196 224 226 191 209 241 254 270 283 282 257 63 109 157 198 186 165 130 128 111 97 90 78 70 73 85 81 39 333 350 341 338 278 275 270 257 271 269 265 250 243
247 266 251 226 158 295 248 241 239 254 253 261 282 305 95 86 8 234 199 180 162 149 130 114 100 82 60 39 42 16 334 334 311 300 300 293 288 261 250 259 266 266 270 258
216 251 253 206 179 184 219 228 242 259 265 253 258 261 115 84 332 245 224 210 193 180 165 149 125 92 39 10 353 356 308 328 328 297 282 298 307 283 264 248 261 270 271 268
246 249 260 276 310 260 239 232 232 242 252 256 254 276 271 278 278 258 248 234 219 202 198 202 201 217 249 319 313 328 327 331 328 317 289 289 301 300 283 263 266 269 269 268
243 256 257 272 281 268 265 259 242 242 254 265 275 277 285 288 279 262 248 234 222 219 218 224 227 233 241 281 304 327 333 328 316 300 296 280 284 298 295 277 271 265 264 267
239 258 263 257 250 260 263 259 253 251 255 259 269 276 287 293 277 250 237 230 230 232 239 244 245 249 248 259 278 292 311 316 296 295 294 286 278 283 274 285 289 291 283 274
218 246 265 267 265 267 256 253 240 237 240 249 260 277 289 276 262 251 251 239 235 241 244 243 249 255 262 268 271 276 286 291 290 298 299 300 292 275 271 274 268 272 275 278
235 239 256 275 268 251 278 69 255 247 254 254 266 283 284 284 288 270 258 249 252 256 255 248 247 250 258 262 272 283 277 277 288 298 300 297 297 288 271 265 263 266 267 262
239 235 244 254 261 267 253 218 235 246 256 255 260 273 281 292 267 249 224 243 265 266 260 253 252 251 244 245 252 260 276 285 285 298 305 299 289 279 275 270 272 274 270 272
205 231 242 241 257 262 283 102 265 256 248 204 251 260 255 258 265 275 254 263 273 269 266 260 250 249 240 233 240 247 265 283 292 301 301 298 294 279 272 273 274 279 281 280
191 206 228 242 254 266 2 102 220 244 332 46 276 272 259 265 299 323 285 271 270 259 259 255 248 245 244 233 236 245 259 280 301 306 300 299 297 288 281 278 269 274 284 280
223 215 220 228 238 250 106 175 234 315 342 309 288 280 269 278 300 286 271 269 264 248 239 248 253 261 248 239 242 251 271 297 303 300 296 297 301 300 288 279 277 271 269 262
230 236 243 234 253 355 196 252 296 307 297 302 295 287 269 269 274 269 258 250 243 239 240 244 243 245 248 244 254 261 276 289 288 287 287 289 291 295 289 274 267 265 258 255
224 238 242 248 252 262 265 266 272 280 287 295 291 282 266 268 269 261 252 239 233 234 241 238 231 236 246 257 262 266 270 270 270 276 283 285 286 294 292 284 274 265 259 254
244 216 242 256 266 272 265 265 269 277 281 286 285 277 266 263 260 254 249 241 236 238 238 239 238 241 248 249 259 262 260 264 270 274 272 269 269 276 283 285 289 278 278 294
226 228 241 260 270 269 283 290 286 276 271 270 271 275 271 263 263 258 252 243 240 237 238 242 246 250 253 251 256 263 264 262 265 267 266 258 252 257 265 276 296 317 284 318